CW1621 Weather Reports


Display with metric or nautical units.
time (UTC)temp
F
wind
direction
speed
MPH
gust
MPH
rain 1hr
in
rain 24hr
in
rain mn
in
humidity
%
barometer
mb
20260831034103 57 351 2.0 2.0 0.00 0.00 0.00 51 1019.4
20260831033603 57 353 0.0 0.0 0.00 0.00 0.00 51 1019.4
20260831033103 57 352 0.0 2.0 0.00 0.00 0.00 51 1019.4
20260831032604 58 353 0.0 2.0 0.00 0.00 0.00 50 1019.1
20260831032103 58 352 1.0 2.0 0.00 0.00 0.00 50 1019.1
20260831031603 58 353 0.0 1.0 0.00 0.00 0.00 49 1019.1
20260831030603 59 352 0.0 1.0 0.00 0.00 0.00 48 1019.3
20260831025603 60 348 0.0 3.0 0.00 0.00 0.00 47 1019.2
20260831025103 60 347 0.0 1.0 0.00 0.00 0.00 46 1019.1
20260831024603 61 343 0.0 0.0 0.00 0.00 0.00 45 1018.8
20260831023603 61 343 1.0 2.0 0.00 0.00 0.00 44 1018.6
20260831023103 62 343 2.0 3.0 0.00 0.00 0.00 43 1018.5
20260831022603 62 343 2.0 3.0 0.00 0.00 0.00 42 1018.4
20260831021603 64 325 0.0 0.0 0.00 0.00 0.00 40 1018.3
20260831021103 64 324 0.0 0.0 0.00 0.00 0.00 39 1019.2
20260831020604 65 322 0.0 0.0 0.00 0.00 0.00 38 1019.4
20260831020103 66 322 0.0 0.0 0.00 0.00 0.00 37 1019.1
20260831015604 66 322 0.0 1.0 0.00 0.00 0.00 37 1019.2
20260831015103 67 324 2.0 3.0 0.00 0.00 0.00 36 1019.2
20260831014103 68 303 1.0 3.0 0.00 0.00 0.00 35 1019.0
20260831013103 69 324 1.0 3.0 0.00 0.00 0.00 34 1019.1
20260831012603 69 325 3.0 5.0 0.00 0.00 0.00 34 1019.1
20260831012103 69 323 2.0 5.0 0.00 0.00 0.00 34 1019.1
20260831011603 69 341 1.0 7.0 0.00 0.00 0.00 34 1019.0
20260831011103 69 334 2.0 5.0 0.00 0.00 0.00 33 1018.7
20260831010603 70 285 2.0 5.0 0.00 0.00 0.00 33 1018.5
20260831005104 69 335 3.0 6.0 0.00 0.00 0.00 33 1018.5
20260831004602 69 333 3.0 6.0 0.00 0.00 0.00 33 1018.4
20260831004103 70 284 2.0 7.0 0.00 0.00 0.00 32 1018.5
20260831003603 70 277 2.0 6.0 0.00 0.00 0.00 33 1018.4
20260831003103 70 314 2.0 6.0 0.00 0.00 0.00 33 1018.5
20260831002603 70 310 3.0 6.0 0.00 0.00 0.00 32 1018.4
20260831001103 71 348 2.0 7.0 0.00 0.00 0.00 32 1018.3
20260831000603 71 287 3.0 5.0 0.00 0.00 0.00 32 1018.6
20260831000103 70 341 2.0 5.0 0.00 0.00 0.00 33 1018.7
20260830235603 69 340 2.0 5.0 0.00 0.00 0.00 34 1018.9
20260830234103 71 356 3.0 9.0 0.00 0.00 0.00 34 1018.7
20260830233603 71 40 2.0 6.0 0.00 0.00 0.00 34 1018.7
20260830233104 71 27 3.0 9.0 0.00 0.00 0.00 33 1018.7
20260830232603 71 304 2.0 5.0 0.00 0.00 0.00 33 1018.8
20260830232103 70 20 3.0 6.0 0.00 0.00 0.00 33 1018.9
20260830231603 69 342 3.0 7.0 0.00 0.00 0.00 33 1019.2
20260830231103 68 319 2.0 7.0 0.00 0.00 0.00 35 1019.1
20260830230603 68 40 5.0 12.0 0.00 0.00 0.00 34 1018.8
20260830230104 69 37 3.0 12.0 0.00 0.00 0.00 33 1018.6
20260830225604 69 7 4.0 7.0 0.00 0.00 0.00 35 1018.6
20260830225103 69 334 3.0 12.0 0.00 0.00 0.00 34 1018.6
20260830224603 69 25 6.0 12.0 0.00 0.00 0.00 34 1018.7
20260830224103 69 30 4.0 12.0 0.00 0.00 0.00 34 1018.7
20260830223604 69 287 4.0 7.0 0.00 0.00 0.00 33 1018.7
20260830223102 69 305 3.0 10.0 0.00 0.00 0.00 34 1018.8
20260830222603 68 294 3.0 13.0 0.00 0.00 0.00 35 1018.9
20260830222103 70 349 2.0 7.0 0.00 0.00 0.00 34 1018.7
20260830221103 70 27 2.0 12.0 0.00 0.00 0.00 35 1018.7
20260830220604 70 33 2.0 7.0 0.00 0.00 0.00 36 1018.8
20260830220104 70 286 3.0 8.0 0.00 0.00 0.00 34 1018.8
20260830215603 69 1 3.0 9.0 0.00 0.00 0.00 35 1019.1
20260830215103 69 63 1.0 6.0 0.00 0.00 0.00 35 1018.9
20260830214603 69 15 4.0 12.0 0.00 0.00 0.00 36 1019.2
20260830213602 68 27 4.0 12.0 0.00 0.00 0.00 37 1019.3
20260830213103 67 34 4.0 12.0 0.00 0.00 0.00 39 1019.5
20260830212603 67 59 4.0 10.0 0.00 0.00 0.00 36 1019.6
20260830211103 68 274 6.0 14.0 0.00 0.00 0.00 37 1019.3
20260830205603 65 268 10.0 13.0 0.00 0.00 0.00 40 1019.6
20260830205104 65 48 5.0 12.0 0.00 0.00 0.00 40 1019.7
20260830204604 67 31 6.0 12.0 0.00 0.00 0.00 39 1019.6
20260830204103 67 279 3.0 7.0 0.00 0.00 0.00 39 1019.5
20260830203603 67 325 3.0 9.0 0.00 0.00 0.00 40 1019.5
20260830203104 67 335 5.0 10.0 0.00 0.00 0.00 41 1019.7
20260830202103 66 332 5.0 9.0 0.00 0.00 0.00 42 1019.8
20260830201603 66 353 3.0 9.0 0.00 0.00 0.00 43 1019.8
20260830200603 65 279 5.0 10.0 0.00 0.00 0.00 43 1019.9
20260830200103 63 308 6.0 16.0 0.00 0.00 0.00 46 1020.1
20260830195603 63 233 9.0 13.0 0.00 0.00 0.00 45 1020.1
20260830195103 64 223 2.0 8.0 0.00 0.00 0.00 43 1019.9
20260830194103 65 342 3.0 9.0 0.00 0.00 0.00 44 1019.9
20260830193604 65 29 2.0 9.0 0.00 0.00 0.00 44 1020.0
20260830193103 65 354 4.0 8.0 0.00 0.00 0.00 45 1020.0
20260830192603 64 330 3.0 9.0 0.00 0.00 0.00 45 1020.0
20260830192103 64 347 5.0 10.0 0.00 0.00 0.00 45 1020.0
20260830191603 65 289 3.0 7.0 0.00 0.00 0.00 46 1020.0
20260830191103 64 24 3.0 9.0 0.00 0.00 0.00 47 1020.0
20260830190603 63 341 5.0 12.0 0.00 0.00 0.00 47 1020.2
20260830190103 65 316 3.0 9.0 0.00 0.00 0.00 47 1019.9
20260830185603 64 13 5.0 12.0 0.00 0.00 0.00 47 1020.2
20260830185104 64 349 2.0 9.0 0.00 0.00 0.00 48 1020.2
20260830184603 65 9 5.0 12.0 0.00 0.00 0.00 46 1019.9
20260830183103 64 6 3.0 12.0 0.00 0.00 0.00 48 1020.2
20260830182603 64 18 3.0 7.0 0.00 0.00 0.00 48 1020.3
20260830182103 62 25 2.0 8.0 0.00 0.00 0.00 50 1020.6
20260830181603 61 314 5.0 10.0 0.00 0.00 0.00 52 1020.6
20260830181103 60 252 4.0 14.0 0.00 0.00 0.00 51 1020.7
20260830180604 60 287 3.0 9.0 0.00 0.00 0.00 52 1020.6
20260830175604 60 290 6.0 12.0 0.00 0.00 0.00 51 1020.6
20260830175103 61 288 6.0 16.0 0.00 0.00 0.00 51 1020.6
20260830174603 62 265 3.0 17.0 0.00 0.00 0.00 51 1020.4
20260830174103 62 317 3.0 9.0 0.00 0.00 0.00 51 1020.5
20260830173603 61 358 2.0 6.0 0.00 0.00 0.00 51 1020.7
20260830173103 59 280 4.0 10.0 0.00 0.00 0.00 54 1020.8
20260830172103 59 275 7.0 13.0 0.00 0.00 0.00 52 1020.6
20260830171604 60 301 3.0 10.0 0.00 0.00 0.00 53 1020.6
20260830171103 59 299 2.0 10.0 0.00 0.00 0.00 53 1020.7
20260830170603 59 271 7.0 12.0 0.00 0.00 0.00 51 1020.5
20260830170103 60 276 3.0 6.0 0.00 0.00 0.00 53 1020.4
20260830165603 59 332 4.0 12.0 0.00 0.00 0.00 53 1020.5
20260830165104 58 283 6.0 12.0 0.00 0.00 0.00 52 1020.6
20260830164603 58 284 6.0 10.0 0.00 0.00 0.00 53 1020.5
20260830164103 59 288 3.0 10.0 0.00 0.00 0.00 54 1020.6
20260830163103 57 213 5.0 6.0 0.00 0.00 0.00 55 1020.8
20260830162603 58 246 4.0 9.0 0.00 0.00 0.00 55 1020.6
20260830162104 57 63 1.0 5.0 0.00 0.00 0.00 57 1020.8
20260830161605 57 276 4.0 6.0 0.00 0.00 0.00 57 1020.7
20260830161103 56 278 5.0 7.0 0.00 0.00 0.00 58 1020.8
20260830160603 56 206 4.0 6.0 0.00 0.00 0.00 57 1020.8
20260830160104 56 269 3.0 7.0 0.00 0.00 0.00 58 1020.8
20260830155603 56 240 4.0 6.0 0.00 0.00 0.00 58 1020.7
20260830155103 55 217 2.0 3.0 0.00 0.00 0.00 60 1020.7
20260830154603 55 214 5.0 6.0 0.00 0.00 0.00 59 1020.8
20260830154103 55 263 3.0 6.0 0.00 0.00 0.00 61 1020.8
20260830153603 54 227 4.0 6.0 0.00 0.00 0.00 61 1020.9
20260830153103 54 204 3.0 6.0 0.00 0.00 0.00 61 1021.1
20260830152103 54 260 4.0 7.0 0.00 0.00 0.00 61 1021.1
20260830151603 54 264 5.0 8.0 0.00 0.00 0.00 63 1021.1
20260830151103 53 251 6.0 9.0 0.00 0.00 0.00 63 1021.0
20260830150603 53 270 6.0 10.0 0.00 0.00 0.00 63 1021.1
20260830145604 52 258 5.0 6.0 0.00 0.00 0.00 64 1021.1
20260830145103 52 257 5.0 6.0 0.00 0.00 0.00 65 1021.0
20260830144603 51 237 5.0 6.0 0.00 0.00 0.00 67 1021.3
20260830144103 50 245 3.0 5.0 0.00 0.00 0.00 69 1021.3
20260830143603 48 247 3.0 5.0 0.00 0.00 0.00 71 1021.6
20260830143103 46 256 3.0 3.0 0.00 0.00 0.00 73 1021.8
20260830142603 45 267 3.0 3.0 0.00 0.00 0.00 75 1022.1
20260830142103 43 267 2.0 3.0 0.00 0.00 0.00 77 1022.4
20260830141603 43 267 1.0 3.0 0.00 0.00 0.00 77 1022.4
20260830135603 41 267 1.0 2.0 0.00 0.00 0.00 77 1021.9
20260830134603 42 267 2.0 3.0 0.00 0.00 0.00 74 1021.7
20260830134103 42 267 2.0 3.0 0.00 0.00 0.00 74 1021.6
20260830133603 42 267 3.0 5.0 0.00 0.00 0.00 74 1021.6
20260830133103 42 267 5.0 5.0 0.00 0.00 0.00 75 1021.5
20260830132604 43 267 3.0 3.0 0.00 0.00 0.00 71 1021.5
20260830132103 45 267 2.0 5.0 0.00 0.00 0.00 69 1021.2
20260830131603 46 267 5.0 6.0 0.00 0.00 0.00 68 1020.9
20260830131103 47 268 6.0 6.0 0.00 0.00 0.00 69 1020.7
20260830130603 46 272 5.0 6.0 0.00 0.00 0.00 71 1020.6
20260830130104 45 261 5.0 5.0 0.00 0.00 0.00 73 1020.8
20260830125603 45 272 3.0 3.0 0.00 0.00 0.00 68 1020.8
20260830124603 47 274 5.0 5.0 0.00 0.00 0.00 69 1020.5
20260830123604 47 273 3.0 5.0 0.00 0.00 0.00 68 1020.4
20260830123104 46 262 3.0 5.0 0.00 0.00 0.00 71 1020.3
20260830122603 46 262 3.0 5.0 0.00 0.00 0.00 69 1020.4
20260830122103 46 263 3.0 3.0 0.00 0.00 0.00 71 1020.5
20260830121603 45 263 3.0 3.0 0.00 0.00 0.00 71 1020.6
20260830121104 44 263 3.0 3.0 0.00 0.00 0.00 74 1020.7
20260830120603 43 263 2.0 3.0 0.00 0.00 0.00 72 1020.6
20260830115603 44 275 2.0 3.0 0.00 0.00 0.00 71 1020.3
20260830115103 43 275 2.0 3.0 0.00 0.00 0.00 73 1020.5
20260830114603 43 275 2.0 3.0 0.00 0.00 0.00 69 1020.3
20260830114103 45 275 2.0 3.0 0.00 0.00 0.00 66 1020.1
20260830113103 48 275 0.0 2.0 0.00 0.00 0.00 62 1019.7
20260830112603 49 275 1.0 2.0 0.00 0.00 0.00 64 1019.6
20260830111604 49 275 2.0 2.0 0.00 0.00 0.00 64 1019.5
20260830111103 49 275 2.0 3.0 0.00 0.00 0.00 64 1019.4
20260830110604 48 275 2.0 3.0 0.00 0.00 0.00 65 1019.2
20260830110103 48 275 0.0 2.0 0.00 0.00 0.00 66 1019.2
20260830104603 48 275 0.0 0.0 0.00 0.00 0.00 65 1019.1
20260830104103 49 275 0.0 1.0 0.00 0.00 0.00 64 1019.0
20260830103103 49 275 2.0 3.0 0.00 0.00 0.00 63 1019.0
20260830102603 49 275 2.0 3.0 0.00 0.00 0.00 64 1019.0
20260830102104 49 275 1.0 2.0 0.00 0.00 0.00 64 1018.9
20260830101103 48 275 2.0 3.0 0.00 0.00 0.00 64 1018.9
20260830100604 49 275 3.0 3.0 0.00 0.00 0.00 64 1018.8
20260830100104 49 275 3.0 3.0 0.00 0.00 0.00 62 1018.7
20260830095604 50 275 5.0 6.0 0.00 0.00 0.00 61 1018.7
20260830095103 50 273 5.0 6.0 0.00 0.00 0.00 61 1018.7
20260830094603 51 269 5.0 6.0 0.00 0.00 0.00 60 1018.4
20260830094103 51 269 6.0 6.0 0.00 0.00 0.00 60 1018.4
20260830093603 51 269 5.0 6.0 0.00 0.00 0.00 58 1018.4
20260830093103 51 269 5.0 5.0 0.00 0.00 0.00 60 1018.4
20260830092603 51 269 5.0 5.0 0.00 0.00 0.00 59 1018.4
20260830091604 50 269 3.0 3.0 0.00 0.00 0.00 61 1018.8
20260830091103 50 269 2.0 3.0 0.00 0.00 0.00 61 1018.6
20260830090604 51 269 3.0 5.0 0.00 0.00 0.00 59 1018.3
20260830090103 51 269 5.0 5.0 0.00 0.00 0.00 59 1018.0
20260830085603 51 269 5.0 6.0 0.00 0.00 0.00 60 1018.2
20260830085104 50 269 6.0 7.0 0.00 0.00 0.00 61 1018.2
20260830084603 50 276 3.0 6.0 0.00 0.00 0.00 61 1018.3
20260830083103 51 280 3.0 3.0 0.00 0.00 0.00 59 1018.1
20260830082103 52 269 7.0 9.0 0.00 0.00 0.00 59 1017.7
20260830081603 52 276 9.0 10.0 0.00 0.00 0.00 58 1017.8
20260830081103 52 278 7.0 12.0 0.00 0.00 0.00 58 1017.9
20260830080604 52 278 10.0 12.0 0.00 0.00 0.00 59 1018.0
20260830080103 52 281 8.0 12.0 0.00 0.00 0.00 60 1018.1
20260830075603 52 285 6.0 6.0 0.00 0.00 0.00 59 1018.1
20260830074603 52 283 5.0 6.0 0.00 0.00 0.00 58 1018.0
20260830074103 52 286 6.0 7.0 0.00 0.00 0.00 58 1018.1
20260830073603 53 285 5.0 7.0 0.00 0.00 0.00 58 1017.8
20260830073104 53 285 5.0 6.0 0.00 0.00 0.00 58 1017.8
20260830072603 52 287 7.0 9.0 0.00 0.00 0.00 59 1018.0
20260830072103 52 289 6.0 7.0 0.00 0.00 0.00 59 1018.1
20260830071604 51 290 3.0 5.0 0.00 0.00 0.00 59 1018.0
20260830065604 52 263 3.0 5.0 0.00 0.00 0.00 58 1017.6
20260830065103 52 267 5.0 6.0 0.00 0.00 0.00 58 1017.6
20260830064604 52 275 6.0 7.0 0.00 0.00 0.00 58 1017.5
20260830064103 52 280 3.0 5.0 0.00 0.00 0.00 58 1017.6
20260830063603 52 281 5.0 8.0 0.00 0.00 0.00 58 1017.5
20260830063104 51 274 5.0 9.0 0.00 0.00 0.00 58 1017.7
20260830062603 52 264 5.0 10.0 0.00 0.00 0.00 58 1017.5
20260830062104 52 267 6.0 8.0 0.00 0.00 0.00 57 1017.5
20260830061603 53 271 7.0 8.0 0.00 0.00 0.00 58 1017.5
20260830061103 52 278 5.0 7.0 0.00 0.00 0.00 58 1017.6
20260830060604 52 280 4.0 10.0 0.00 0.00 0.00 58 1017.8
20260830060104 52 278 5.0 9.0 0.00 0.00 0.00 58 1017.8
20260830055604 52 275 3.0 6.0 0.00 0.00 0.00 58 1017.8
20260830054603 53 277 3.0 6.0 0.00 0.00 0.00 58 1017.8
20260830054104 53 284 3.0 5.0 0.00 0.00 0.00 57 1017.8
20260830053603 53 274 5.0 8.0 0.00 0.00 0.00 57 1017.8
20260830053103 53 273 5.0 8.0 0.00 0.00 0.00 57 1017.8
20260830052603 53 274 6.0 8.0 0.00 0.00 0.00 56 1017.8
20260830051603 54 275 7.0 12.0 0.00 0.00 0.00 55 1017.6
20260830051104 54 282 7.0 10.0 0.00 0.00 0.00 55 1017.8
20260830050603 54 282 5.0 10.0 0.00 0.00 0.00 55 1018.0
20260830050105 54 283 5.0 10.0 0.00 0.00 0.00 55 1018.0
20260830045603 54 285 4.0 7.0 0.00 0.00 0.00 54 1018.0
20260830044603 54 281 6.0 9.0 0.00 0.00 0.00 53 1018.0
20260830044103 55 283 5.0 12.0 0.00 0.00 0.00 53 1018.0
20260830043104 55 273 6.0 10.0 0.00 0.00 0.00 51 1018.0
20260830042603 55 286 6.0 10.0 0.00 0.00 0.00 52 1018.0
20260830042103 54 269 10.0 14.0 0.00 0.00 0.00 52 1017.9
20260830041103 54 269 6.0 9.0 0.00 0.00 0.00 51 1018.1
20260830040603 55 274 7.0 9.0 0.00 0.00 0.00 50 1018.4
20260830040104 54 271 7.0 9.0 0.00 0.00 0.00 50 1018.3
20260830035603 55 272 7.0 13.0 0.00 0.00 0.00 49 1018.4
20260830035104 54 272 7.0 12.0 0.00 0.00 0.00 49 1018.4
20260830034603 54 276 6.0 10.0 0.00 0.00 0.00 49 1018.3